SCP
0 0 0 0 0 0 0 0 0 0 0 0 0 0 0 0 0 0 0 0 0 0 0 0 0 0 0 0 0 0 0 0 0 0 0 0 0 0 0 0 0 0 0
0 0 0 0 0 0 0 0 0 0 0 0 0 0 0 0 0 0 0 0 0 0 0 0 0 0 0 0 0 0 0 0 0 0 0 0 0 0 0 0 0 0 0
0 0 0 0 0 0 0 0 0 0 0 0 0 0 0 0 0 0 0 0 0 0 0 0 0 0 0 0 0 0 0 0 0 0 0 0 0 0 0 0 0 0 0
0 0 0 0 0 0 0 0 0 0 0 0 0 0 0 0 0 0 0 0 0 0 0 0 0 0 0 0 0 0 0 0 0 0 0 0 0 0 0 0 0 0 0
0 0 0 0 0 0 0 0 0 0 0 0 0 0 0 0 0 0 0 0 0 0 0 0 0 0 0 0 0 0 0 0 0 0 0 0 0 0 0 0 0 0 0
0 0 0 0 0 0 0 0 0 0 0 0 0 0 0 0 0 0 0 0 0 0 0 0 0 0 0 0 0 0 0 0 0 0 0 0 0 0 0 0 0 0 0
0 0 0 0 0 0 0 0 0 0 0 0 0 0 0 0 0 0 0 0 0 0 0 0 0 0 0 0 0 0 0 0 0 0 0 0 0 0 0 0 0 0 0
0 0 0 0 0 0 0 0 0 0 0 0 0 0 0 0 0 0 0 0 0 0 0 0 0 0 0 0 0 0 0 0 0 0 0 0 0 0 0 0 0 0 0
0 0 0 0 0 0 0 0 0 0 0 0 0 0 0 0 0 0 0 0 0 0 0 0 0 0 0 0 0 0 0 0 0 0 0 0 0 0 0 0 0 0 0
0 0 0 0 0 0 0 0 0 0 0 0 0 0 0 0 0 0 0 0 0 0 0 0 0 0 0 0 0 0 0 0 0 0 0 0 0 0 0 0 0 0 0
0 0 0 0 0 0 0 0 0 0 0 0 0 0 0 0 0 0 0 0 0 0 0 0 0 0 0 0 0 0 0 0 0 0 0 0 0 0 0 0 0 0 0
0 0 0 0 0 0 0 0 0 0 0 0 0 0 0 0 0 0 0 0 0 0 0 0 0 0 0 0 0 0 0 0 0 0 0 0 0 0 0 0 0 0 0
0 0 0 0 0 0 0 0 0 0 0 0 0 0 0 0 0 0 0 0 0 0 0 0 0 0 0 0 0 0 0 0 0 0 0 0 0 0 0 0 0 0 0
0 0 0 0 0 0 0 0 0 0 0 0 0 0 0 0 0 0 0 0 0 0 0 0 0 0 0 0 0 0 0 0 0 0 0 0 0 0 0 0 0 0 0
0 0 0 0 0 0 0 0 0 0 0 0 0 0 0 0 0 0 0 0 0 0 0 0 0 0 0 0 0 0 0 0 0 0 0 0 0 0 0 0 0 0 0
0 0 0 0 0 0 0 0 0 0 0 0 0 0 0 0 0 0 0 0 0 0 0 0 0 0 0 0 0 0 0 0 0 0 0 0 0 0 0 0 0 0 0
0 0 0 0 0 0 0 0 0 0 0 0 0 0 0 0 0 0 0 0 0 0 0 0 0 0 0 0 0 0 0 0 0 0 0 0 0 0 0 0 0 0 0
0 0 0 0 0 0 0 0 0 0 0 0 0 0 0 0 0 0 0 0 0 0 0 0 0 0 0 0 0 0 0 0 0 0 0 0 0 0 0 0 0 0 0
0 0 0 0 0 0 0 0 0 0 0 0 0 0 0 0 0 0 0 0 0 0 0 0 0 0 0 0 0 0 0 0 0 0 0 0 0 0 0 0 0 0 0
0 0 0 0 0 0 0 0 0 0 0 0 0 0 0 0 0 0 0 0 0 0 0 0 0 0 0 0 0 0 0 0 0 0 0 0 0 0 0 0 0 0 0
0 0 0 0 0 0 0 0 0 0 0 0 0 0 0 0 0 0 0 0 0 0 0 0 0 0 0 0 0 0 0 0 0 0 0 0 0 0 0 0 0 0 0
0 0 0 0 0 0 0 0 0 0 0 0 0 0 0 0 0 0 0 0 0 0 0 0 0 0 0 0 0 0 0 0 0 0 0 0 0 0 0 0 0 0 0
0 0 0 0 0 0 0 0 0 0 0 0 0 0 0 0 0 0 0 0 0 0 0 0 0 0 0 0 0 0 0 0 0 0 0 0 0 0 0 0 0 0 0
0 0 0 0 0 0 0 0 0 0 0 0 0 0 0 0 0 0 0 0 0 0 0 0 0 0 0 0 0 0 0 0 0 0 0 0 0 0 0 0 0 0 0
0 0 0 0 0 0 0 0 0 0 0 0 0 0 0 0 0 0 0 0 0 0 0 0 0 0 0 0 0 0 0 0 0 0 0 0 0 0 0 0 0 0 0
0 0 0 0 0 0 0 0 0 0 0 0 0 0 0 0 0 0 0 0 0 0 0 0 0 0 0 0 0 0 0 0 0 0 0 0 0 0 0 0 0 0 0
Wind_Speed
12 9 10 10 10 12 14 16 16 15 13 11 10 10 9 8 7 7 9 10 9 9 8 5 5 5 4 4 4 2 2 0 0 1 3 3 3 2 1 1 1 1 1
9 8 8 8 11 13 15 15 16 16 16 13 11 8 7 6 6 6 8 10 10 9 8 8 6 6 4 4 4 3 2 1 1 2 1 3 4 3 3 2 1 1 1
12 9 9 10 11 13 15 15 16 16 15 13 8 6 4 3 4 6 7 8 10 9 8 8 7 6 6 5 5 4 5 3 1 1 3 2 2 3 3 2 2 2 1
9 9 9 10 11 13 12 13 15 14 14 14 13 13 10 9 9 7 6 7 9 9 9 9 8 7 6 6 5 5 4 4 2 1 1 2 3 2 3 3 3 3 2
9 9 10 10 10 10 11 11 12 13 13 14 15 15 10 7 5 5 7 8 7 8 9 9 8 7 6 6 6 5 5 4 4 3 2 1 1 2 2 4 4 3 3
8 7 6 6 6 7 8 10 12 12 13 14 15 15 13 10 9 9 9 8 5 6 8 8 8 7 6 7 6 6 6 5 4 3 3 3 3 3 3 4 4 4 4
7 6 6 7 7 8 9 10 12 12 12 14 14 14 14 14 14 11 11 9 6 6 8 8 8 7 7 7 6 6 6 6 5 5 4 4 3 3 3 3 3 3 4
6 7 7 8 8 9 10 10 12 11 12 13 12 11 12 10 9 11 9 10 8 8 9 9 8 8 8 7 6 5 5 5 5 6 5 3 4 3 4 4 3 2 3
8 7 7 7 8 9 10 11 12 10 11 12 11 10 11 11 10 9 8 8 7 6 9 9 9 8 8 8 7 5 6 5 5 5 5 4 3 3 4 3 4 4 3
7 7 6 7 7 8 8 8 9 10 9 10 10 9 10 10 10 9 10 9 8 8 9 9 9 8 8 8 7 5 5 6 5 4 5 5 3 3 3 4 4 4 5
8 7 7 6 6 6 7 8 8 8 8 9 9 9 9 9 9 10 10 10 9 9 10 10 9 9 8 8 7 6 6 7 6 5 6 6 5 4 4 3 3 4 4
7 7 6 6 6 7 7 8 8 8 8 8 8 9 8 8 9 9 9 10 10 10 10 9 9 9 8 8 8 8 7 8 8 7 6 6 4 5 4 4 5 5 5
6 5 5 6 7 8 8 8 8 8 7 7 8 8 8 9 9 9 9 9 10 9 9 9 10 9 9 9 8 8 8 8 8 7 7 7 6 6 5 5 5 5 5
7 7 7 7 7 8 8 8 8 8 7 8 8 9 9 9 8 8 8 9 9 9 9 9 9 8 8 8 8 7 7 7 7 7 7 7 7 8 7 6 6 5 5
7 8 9 8 7 7 7 7 7 7 8 8 9 9 7 7 7 7 7 8 8 9 8 8 7 7 6 7 7 7 7 7 7 6 6 7 9 10 8 6 5 5 5
10 10 9 8 9 9 8 8 8 8 8 9 8 7 7 7 7 7 7 7 7 6 7 7 7 7 6 9 12 9 7 7 7 7 6 6 8 11 14 15 13 10 7
11 10 10 10 10 9 9 9 8 7 8 8 7 7 7 7 7 7 7 7 7 6 6 6 6 7 7 10 11 11 6 6 6 7 6 6 6 9 6 10 14 13 15
10 10 9 8 7 7 7 6 6 7 8 7 7 7 7 7 6 7 7 6 5 6 6 6 6 5 6 9 10 9 6 5 6 6 6 6 6 6 7 6 6 7 8
10 9 9 8 7 7 7 8 7 7 7 7 7 7 7 7 7 7 6 5 4 4 4 4 5 5 5 7 8 7 4 4 5 5 5 6 6 11 13 7 7 8 8
7 7 6 6 6 6 8 8 7 7 8 8 7 7 7 7 7 7 5 4 4 4 4 3 4 5 5 7 8 7 3 4 4 4 5 9 10 13 13 8 7 9 9
7 7 7 7 6 7 9 8 7 8 7 6 6 6 6 6 6 5 4 4 4 3 3 3 3 3 4 6 8 8 4 5 4 4 4 5 12 14 14 12 7 11 10
7 7 7 6 5 7 9 8 7 6 6 6 6 5 5 5 5 5 4 4 4 4 3 2 2 2 3 4 6 8 8 6 4 5 4 6 11 13 14 11 12 15 12
7 6 8 7 5 5 8 8 6 6 7 7 6 5 5 4 5 5 5 4 3 3 2 2 3 3 2 3 7 8 9 8 5 4 8 10 12 11 8 11 14 11 4
7 7 9 9 6 5 5 6 6 7 8 7 6 5 5 4 4 3 4 4 4 3 3 3 3 3 2 3 3 4 4 7 6 5 8 11 10 7 8 8 6 4 4
6 7 9 9 7 6 6 6 7 8 8 7 5 5 4 4 3 2 2 3 3 4 4 4 4 3 4 5 7 4 3 3 4 4 2 2 2 3 3 3 3 3 3
7 8 7 8 7 7 6 5 6 8 8 6 5 4 3 3 3 2 1 1 0 2 3 3 3 4 5 6 7 8 9 9 9 5 2 3 3 4 4 4 4 4 4
Wind_Direction
241 228 213 203 194 190 187 186 184 182 176 177 178 181 187 186 188 190 188 186 184 182 178 175 174 171 173 179 174 155 148 168 71 43 348 337 350 19 25 19 39 30 27
244 229 208 194 189 188 188 186 186 182 181 183 183 183 176 179 185 185 187 187 184 182 181 177 177 175 170 173 174 159 150 154 114 121 69 351 343 341 357 356 20 14 16
228 221 207 199 191 190 189 188 188 184 183 176 164 147 137 139 170 188 191 191 186 183 180 179 174 176 175 182 184 172 163 171 176 142 145 149 244 303 321 335 346 343 349
220 214 206 199 196 196 190 187 185 183 181 174 173 172 179 185 189 183 185 185 185 182 180 178 176 178 179 180 183 176 166 156 173 178 159 168 166 180 303 313 317 322 308
216 214 209 203 197 189 184 184 180 181 179 179 180 182 186 183 165 165 176 183 185 184 181 177 177 180 181 181 176 171 170 167 171 174 167 156 138 163 186 277 303 311 284
217 218 212 195 189 181 178 176 176 181 180 182 182 186 183 173 167 175 182 185 185 186 185 179 180 181 180 181 182 179 175 179 175 176 172 169 173 190 189 231 269 288 284
204 203 197 190 186 180 179 177 177 181 182 183 186 188 185 180 182 182 185 183 183 190 191 183 183 182 184 183 178 178 183 182 181 186 192 191 193 175 175 197 244 273 291
203 204 203 194 188 185 181 178 181 181 182 185 189 187 184 185 189 187 185 188 192 192 185 185 186 185 182 182 179 181 188 185 190 196 194 196 204 188 182 183 189 269 292
206 206 202 195 189 186 186 184 183 182 185 187 185 185 186 187 187 184 184 188 188 182 182 183 185 185 183 182 179 188 192 188 197 201 201 204 209 201 200 190 179 188 254
210 207 202 197 192 188 185 182 183 185 184 185 186 187 189 188 184 182 188 188 184 179 179 184 186 186 187 185 184 189 192 192 202 199 202 213 214 210 206 203 201 195 205
206 205 203 197 187 179 178 182 186 185 185 187 186 186 187 184 183 187 190 188 184 181 183 186 186 188 189 187 189 196 191 199 208 207 208 220 213 214 216 211 208 210 203
202 198 193 184 182 185 186 187 188 190 191 186 183 187 183 181 185 190 188 184 185 186 186 184 187 191 192 191 193 199 198 202 209 213 212 224 218 223 223 219 224 224 216
195 193 188 188 191 192 192 192 192 192 187 181 182 184 184 185 191 190 185 184 184 185 185 185 191 194 194 195 199 200 203 208 212 212 213 221 216 230 232 230 233 234 236
194 193 197 199 197 194 193 193 195 189 181 180 184 189 191 191 190 185 182 183 182 183 187 191 195 195 195 197 200 201 207 213 218 217 218 220 218 228 233 237 237 238 241
204 202 201 200 197 195 195 194 194 187 180 181 188 194 189 183 178 177 179 180 182 186 186 187 192 192 194 201 199 202 207 212 221 226 226 228 232 237 241 245 243 236 243
210 206 203 198 198 197 196 192 192 185 177 184 191 184 176 175 176 177 175 175 180 180 179 187 190 194 205 211 209 206 208 212 218 229 235 239 243 251 260 265 267 258 250
206 203 201 200 200 197 191 191 188 173 175 183 182 176 174 175 177 172 171 177 180 178 185 191 192 202 214 214 217 216 209 213 221 227 234 244 246 255 251 265 273 274 271
202 201 198 198 198 188 180 173 162 164 171 174 174 171 169 171 167 166 175 178 175 182 188 194 197 204 219 219 222 219 210 218 228 230 231 237 247 249 255 250 256 257 261
197 196 194 188 179 173 167 154 156 160 166 174 175 173 169 167 166 173 177 173 170 181 187 188 191 201 221 221 223 216 205 222 235 237 235 239 246 260 269 265 261 267 267
183 180 170 159 160 166 151 149 157 162 176 179 174 166 164 166 172 175 170 162 167 178 176 186 194 201 217 229 231 224 206 224 237 240 241 249 258 266 271 261 256 265 268
170 161 150 154 165 154 145 151 158 176 179 159 148 150 158 163 163 156 151 151 153 156 171 190 208 213 223 233 236 235 220 220 232 240 243 249 266 272 275 274 260 266 278
156 150 143 146 147 146 145 151 168 169 141 135 138 144 148 146 140 142 143 146 149 158 176 190 227 234 233 233 241 244 246 249 235 240 242 251 270 276 279 280 279 285 291
154 147 141 136 130 142 147 153 162 138 130 130 136 138 135 133 138 145 148 146 152 163 183 192 222 245 240 244 251 255 258 260 253 249 265 273 278 282 280 282 288 292 286
149 142 137 136 138 139 138 144 138 133 131 134 137 137 135 133 132 138 148 155 167 177 190 205 225 242 251 249 247 245 253 263 265 267 273 282 287 286 285 288 290 279 265
140 141 143 144 144 136 130 130 134 133 130 132 133 133 133 139 139 142 162 173 191 188 192 207 205 217 243 251 259 262 246 240 248 272 264 266 272 266 268 269 268 263 272
136 134 134 135 135 132 131 132 135 135 134 134 136 137 136 136 136 134 82 7 243 244 242 244 240 246 264 285 281 281 284 286 286 287 258 257 254 255 258 263 265 261 260